• MPC Preparation (Info)

  • MPEC 2014-D24 : 2014 DX2

    The following Minor Planet Electronic Circular may be linked-to from your own Web pages, but must not otherwise be redistributed electronically.

    A form allowing access to any MPEC is at the bottom of this page.


    Read MPEC 2014-D23 Read MPEC 2014-D25


    M.P.E.C. 2014-D24                                Issued 2014 Feb. 22, 17:42 UT
    
         The Minor Planet Electronic Circulars contain information on unusual
             minor planets and routine data on comets.  They are published
       on behalf of Commission 20 of the International Astronomical Union by the
              Minor Planet Center, Smithsonian Astrophysical Observatory,
                              Cambridge, MA 02138, U.S.A.
    
                 Prepared using the Tamkin Foundation Computer Network
    
                                  MPC@CFA.HARVARD.EDU
                URL https://www.minorplanetcenter.net/    ISSN 1523-6714
    
                                       2014 DX2
    
    Observations:
         K14D02X  C2014 01 24.52232 11 04 21.348-09 14 08.53         21.1 rLED024F51
         K14D02X  C2014 01 24.53331 11 04 21.760-09 14 17.33         21.3 rLED024F51
         K14D02X  C2014 01 25.47620 11 05 00.646-09 27 03.86         21.4 gLED024F51
         K14D02X  C2014 01 25.48791 11 05 01.070-09 27 13.61         21.5 gLED024F51
         K14D02X  C2014 01 25.49968 11 05 01.501-09 27 22.95         20.8 rLED024F51
         K14D02X  C2014 01 25.51119 11 05 01.920-09 27 32.45         21.0 rLED024F51
         K14D02X  C2014 02 13.54712 11 13 51.681-13 23 46.08         20.1 rLED024F51
         K14D02X  C2014 02 13.55878 11 13 51.782-13 23 53.61         19.9 rLED024F51
         K14D02X* C2014 02 21.47704 11 15 10.717-14 41 50.60         19.4 iLED024F51
         K14D02X  C2014 02 21.48929 11 15 10.693-14 41 56.87         19.5 iLED024F51
         K14D02X  C2014 02 21.51375 11 15 10.657-14 42 09.56         19.4 iLED024F51
         K14D02X KC2014 02 22.03341 11 15 13.23 -14 46 43.7          19.6 VuED024958
         K14D02X KC2014 02 22.12382 11 15 13.22 -14 47 29.5          19.7 VuED024958
         K14D02X KC2014 02 22.13527 11 15 13.23 -14 47 36.2          19.6 VuED024958
         K14D02X |C2014 02 22.20409 11 15 14.15 -14 47 53.2          19.8 VuED024807
         K14D02X |C2014 02 22.20779 11 15 14.13 -14 47 55.1          19.9 VuED024807
         K14D02X |C2014 02 22.21149 11 15 14.12 -14 47 56.9          19.7 VuED024807
    
    Observer details:
    807 Cerro Tololo.  Observers T. Linder, R. Holmes.  Measurers T. Linder,
        R. Holmes, K. Baker.  0.41-m f/11 Ritchey-Chretien + CCD.
    958 Observatoire de Dax.  Observers P. Dupouy, J. B. de Vanssay.  Measurer
        P. Dupouy.  0.43-m f/2.7 reflector + CCD.
    F51 Pan-STARRS 1, Haleakala.  Observers N. Primak, A. Schultz, T. Goggia,
        M. Willman.  Measurers PS1 Science Consortium, P. Veres.  1.8-m
        Ritchey-Chretien + CCD.
    
    Orbital elements:
    2014 DX2                                                 Earth MOID = 0.2826 AU
    Epoch 2013 Nov. 4.0 TT = JDT 2456600.5                  MPC
    M 317.88030              (2000.0)            P               Q
    n   0.22880983     Peri.  344.46246     -0.80860526     +0.58054393
    a   2.6474002      Node   231.42455     -0.52594562     -0.78602069
    e   0.5129585      Incl.    7.01888     -0.26370201     -0.21246230
    P   4.31           H   19.2           G   0.15           U   5
    Residuals in seconds of arc
    140124 F51  0.1-  0.1+    140213 F51  0.1+  0.0     140222 958  0.2-  0.1-
    140124 F51  0.1-  0.3+    140213 F51  0.1-  0.0     140222 958  0.0   1.1-
    140125 F51  0.1+  0.0     140221 F51  0.2+  0.0     140222 807  0.1+  0.0
    140125 F51  0.0   0.2-    140221 F51  0.1+  0.1+    140222 807  0.1-  0.0
    140125 F51  0.1+  0.0     140221 F51  0.0   0.2+    140222 807  0.1-  0.1+
    140125 F51  0.1+  0.1-    140222 958  0.9-  0.4-
    
    Ephemeris:
    2014 DX2                 a,e,i = 2.65, 0.51, 7                   q = 1.2894
    Date    TT    R. A. (2000) Decl.     Delta      r     Elong.  Phase     V
    2014 01 23    11 03 16.5 -08 53 18   0.8593  1.6766   130.7    26.4    21.2
    ...
    2014 02 07    11 11 44.2 -12 08 24   0.6954  1.5891   141.2    22.9    20.5
    ...
    2014 02 15    11 14 12.5 -13 39 08   0.6207  1.5447   146.7    20.5    20.1
    ...
    2014 02 21    11 15 08.2 -14 37 29   0.5707  1.5127   150.7    18.6    19.8
    2014 02 22    11 15 13.1 -14 46 13   0.5629  1.5076   151.4    18.3    19.8
    2014 02 23    11 15 16.7 -14 54 37   0.5552  1.5024   152.0    18.0    19.7
    ...
    2014 03 01    11 15 16.0 -15 37 38   0.5121  1.4723   155.5    16.2    19.5
    ...
    2014 03 09    11 14 33.4 -16 12 15   0.4628  1.4347   159.1    14.3    19.1
    ...
    2014 03 24    11 13 47.7 -15 55 26   0.3945  1.3735   159.6    14.7    18.7
    
    A. U. Tomatic                (C) Copyright 2014 MPC           M.P.E.C. 2014-D24
    

    Read MPEC 2014-D23 Read MPEC 2014-D25


    MPEC number:

    Enter an MPEC number in one of the following forms:

    • 1997-B01 (the full form)
    • J97B01 (the packed version of the full form)
    • B01 (the abbreviated form)